Time,TemperatureF,DewpointF,PressureIn,WindDirection,WindDirectionDegrees,WindSpeedMPH,WindSpeedGustMPH,Humidity,HourlyPrecipIn,Conditions,Clouds,dailyrainin,SoftwareType,DateUTC
2013-12-07 00:02:00,-3.0,-6.0,-100.00,West,280,1.0,4.0,85,-99.99,,,-99.99,,2013-12-07 06:02:00,
2013-12-07 00:23:00,-3.0,-7.0,-100.00,WNW,290,2.0,5.0,85,-99.99,,,-99.99,,2013-12-07 06:23:00,
2013-12-07 00:32:00,-3.0,-7.0,-100.00,WNW,290,2.0,5.0,85,-99.99,,,-99.99,,2013-12-07 06:32:00,
2013-12-07 00:43:00,-3.0,-7.0,-100.00,WNW,290,2.0,5.0,85,-99.99,,,-99.99,,2013-12-07 06:43:00,
2013-12-07 00:53:00,-3.0,-7.0,-100.00,WNW,290,2.0,5.0,85,-99.99,,,-99.99,,2013-12-07 06:53:00,
2013-12-07 01:02:00,-3.0,-7.0,-100.00,WNW,290,2.0,5.0,85,-99.99,,,-99.99,,2013-12-07 07:02:00,
2013-12-07 01:22:00,-5.0,-8.0,-100.00,WNW,290,2.0,6.0,85,-99.99,,,-99.99,,2013-12-07 07:22:00,
2013-12-07 01:32:00,-5.0,-8.0,-100.00,WNW,290,2.0,6.0,85,-99.99,,,-99.99,,2013-12-07 07:32:00,
2013-12-07 01:42:00,-5.0,-8.0,-100.00,WNW,290,2.0,6.0,85,-99.99,,,-99.99,,2013-12-07 07:42:00,
2013-12-07 01:53:00,-5.0,-8.0,-100.00,WNW,290,2.0,6.0,85,-99.99,,,-99.99,,2013-12-07 07:53:00,
2013-12-07 02:02:00,-5.0,-8.0,-100.00,WNW,290,2.0,6.0,85,-99.99,,,-99.99,,2013-12-07 08:02:00,
2013-12-07 02:22:00,-7.0,-10.0,-100.00,NW,305,2.0,6.0,86,-99.99,,,-99.99,,2013-12-07 08:22:00,
2013-12-07 02:32:00,-7.0,-10.0,-100.00,NW,305,2.0,6.0,86,-99.99,,,-99.99,,2013-12-07 08:32:00,
2013-12-07 02:42:00,-7.0,-10.0,-100.00,NW,305,2.0,6.0,86,-99.99,,,-99.99,,2013-12-07 08:42:00,
2013-12-07 02:52:00,-7.0,-10.0,-100.00,NW,305,2.0,6.0,86,-99.99,,,-99.99,,2013-12-07 08:52:00,
2013-12-07 03:02:00,-7.0,-10.0,-100.00,NW,305,2.0,6.0,86,-99.99,,,-99.99,,2013-12-07 09:02:00,
2013-12-07 03:03:00,-10.0,-13.0,-100.00,WNW,295,1.0,6.0,86,-99.99,,,-99.99,,2013-12-07 09:03:00,
2013-12-07 03:22:00,-10.0,-13.0,-100.00,WNW,295,1.0,6.0,86,-99.99,,,-99.99,,2013-12-07 09:22:00,
2013-12-07 03:33:00,-10.0,-13.0,-100.00,WNW,295,1.0,6.0,86,-99.99,,,-99.99,,2013-12-07 09:33:00,
2013-12-07 03:44:00,-10.0,-13.0,-100.00,WNW,295,1.0,6.0,86,-99.99,,,-99.99,,2013-12-07 09:44:00,
2013-12-07 03:53:00,-10.0,-13.0,-100.00,WNW,295,1.0,6.0,86,-99.99,,,-99.99,,2013-12-07 09:53:00,
2013-12-07 04:23:00,-11.0,-14.0,-100.00,NW,315,1.0,5.0,85,-99.99,,,-99.99,,2013-12-07 10:23:00,
2013-12-07 04:33:00,-11.0,-14.0,-100.00,NW,315,1.0,5.0,85,-99.99,,,-99.99,,2013-12-07 10:33:00,
2013-12-07 04:43:00,-11.0,-14.0,-100.00,NW,315,1.0,5.0,85,-99.99,,,-99.99,,2013-12-07 10:43:00,
2013-12-07 04:53:00,-11.0,-14.0,-100.00,NW,315,1.0,5.0,85,-99.99,,,-99.99,,2013-12-07 10:53:00,
2013-12-07 05:02:00,-11.0,-14.0,-100.00,NW,315,1.0,5.0,85,-99.99,,,-99.99,,2013-12-07 11:02:00,
2013-12-07 05:22:00,-11.0,-14.0,-100.00,WNW,300,1.0,5.0,85,-99.99,,,-99.99,,2013-12-07 11:22:00,
2013-12-07 05:33:00,-11.0,-14.0,-100.00,WNW,300,1.0,5.0,85,-99.99,,,-99.99,,2013-12-07 11:33:00,
2013-12-07 05:42:00,-11.0,-14.0,-100.00,WNW,300,1.0,5.0,85,-99.99,,,-99.99,,2013-12-07 11:42:00,
2013-12-07 05:52:00,-11.0,-14.0,-100.00,WNW,300,1.0,5.0,85,-99.99,,,-99.99,,2013-12-07 11:52:00,
2013-12-07 06:02:00,-11.0,-14.0,-100.00,WNW,300,1.0,5.0,85,-99.99,,,-99.99,,2013-12-07 12:02:00,
2013-12-07 06:22:00,-12.0,-15.0,-100.00,NW,315,1.0,4.0,85,-99.99,,,-99.99,,2013-12-07 12:22:00,
2013-12-07 06:32:00,-12.0,-15.0,-100.00,NW,315,1.0,4.0,85,-99.99,,,-99.99,,2013-12-07 12:32:00,
2013-12-07 06:43:00,-12.0,-15.0,-100.00,NW,315,1.0,4.0,85,-99.99,,,-99.99,,2013-12-07 12:43:00,
2013-12-07 06:52:00,-12.0,-15.0,-100.00,NW,315,1.0,4.0,85,-99.99,,,-99.99,,2013-12-07 12:52:00,
2013-12-07 07:02:00,-12.0,-15.0,-100.00,NW,315,1.0,4.0,85,-99.99,,,-99.99,,2013-12-07 13:02:00,
2013-12-07 07:22:00,-13.0,-16.0,-100.00,West,260,1.0,4.0,85,-99.99,,,-99.99,,2013-12-07 13:22:00,
2013-12-07 07:32:00,-13.0,-16.0,-100.00,West,260,1.0,4.0,85,-99.99,,,-99.99,,2013-12-07 13:32:00,
2013-12-07 07:42:00,-13.0,-16.0,-100.00,West,260,1.0,4.0,85,-99.99,,,-99.99,,2013-12-07 13:42:00,
2013-12-07 07:52:00,-13.0,-16.0,-100.00,West,260,1.0,4.0,85,-99.99,,,-99.99,,2013-12-07 13:52:00,
2013-12-07 08:02:00,-13.0,-16.0,-100.00,West,260,1.0,4.0,85,-99.99,,,-99.99,,2013-12-07 14:02:00,
2013-12-07 08:22:00,-12.0,-16.0,-100.00,WSW,255,2.0,4.0,85,-99.99,,,-99.99,,2013-12-07 14:22:00,
2013-12-07 08:32:00,-12.0,-16.0,-100.00,WSW,255,2.0,4.0,85,-99.99,,,-99.99,,2013-12-07 14:32:00,
2013-12-07 08:42:00,-12.0,-16.0,-100.00,WSW,255,2.0,4.0,85,-99.99,,,-99.99,,2013-12-07 14:42:00,
2013-12-07 08:52:00,-12.0,-16.0,-100.00,WSW,255,2.0,4.0,85,-99.99,,,-99.99,,2013-12-07 14:52:00,
2013-12-07 09:02:00,-12.0,-16.0,-100.00,WSW,255,2.0,4.0,85,-99.99,,,-99.99,,2013-12-07 15:02:00,
2013-12-07 09:03:00,-9.0,-13.0,-100.00,NW,315,0.0,4.0,84,-99.99,,,-99.99,,2013-12-07 15:03:00,
2013-12-07 09:22:00,-9.0,-13.0,-100.00,NW,315,0.0,4.0,84,-99.99,,,-99.99,,2013-12-07 15:22:00,
2013-12-07 09:34:00,-9.0,-13.0,-100.00,NW,315,0.0,4.0,84,-99.99,,,-99.99,,2013-12-07 15:34:00,
2013-12-07 09:43:00,-9.0,-13.0,-100.00,NW,315,0.0,4.0,84,-99.99,,,-99.99,,2013-12-07 15:43:00,
2013-12-07 09:54:00,-9.0,-13.0,-100.00,NW,315,0.0,4.0,84,-99.99,,,-99.99,,2013-12-07 15:54:00,
2013-12-07 10:24:00,-5.0,-9.0,-100.00,SW,230,2.0,5.0,83,-99.99,,,-99.99,,2013-12-07 16:24:00,
2013-12-07 10:34:00,-5.0,-9.0,-100.00,SW,230,2.0,5.0,83,-99.99,,,-99.99,,2013-12-07 16:34:00,
2013-12-07 10:43:00,-5.0,-9.0,-100.00,SW,230,2.0,5.0,83,-99.99,,,-99.99,,2013-12-07 16:43:00,
2013-12-07 10:53:00,-5.0,-9.0,-100.00,SW,230,2.0,5.0,83,-99.99,,,-99.99,,2013-12-07 16:53:00,
2013-12-07 11:02:00,-5.0,-9.0,-100.00,SW,230,2.0,5.0,83,-99.99,,,-99.99,,2013-12-07 17:02:00,
2013-12-07 11:23:00,0.0,-6.0,-100.00,WSW,245,1.0,4.0,75,-99.99,,,-99.99,,2013-12-07 17:23:00,
2013-12-07 11:33:00,0.0,-6.0,-100.00,WSW,245,1.0,4.0,75,-99.99,,,-99.99,,2013-12-07 17:33:00,
2013-12-07 11:43:00,0.0,-6.0,-100.00,WSW,245,1.0,4.0,75,-99.99,,,-99.99,,2013-12-07 17:43:00,
2013-12-07 11:52:00,0.0,-6.0,-100.00,WSW,245,1.0,4.0,75,-99.99,,,-99.99,,2013-12-07 17:52:00,
2013-12-07 12:02:00,0.0,-6.0,-100.00,WSW,245,1.0,4.0,75,-99.99,,,-99.99,,2013-12-07 18:02:00,
2013-12-07 12:22:00,2.0,-5.0,-100.00,West,270,2.0,6.0,71,-99.99,,,-99.99,,2013-12-07 18:22:00,
2013-12-07 12:32:00,2.0,-5.0,-100.00,West,270,2.0,6.0,71,-99.99,,,-99.99,,2013-12-07 18:32:00,
2013-12-07 12:43:00,2.0,-5.0,-100.00,West,270,2.0,6.0,71,-99.99,,,-99.99,,2013-12-07 18:43:00,
2013-12-07 12:52:00,2.0,-5.0,-100.00,West,270,2.0,6.0,71,-99.99,,,-99.99,,2013-12-07 18:52:00,
2013-12-07 13:02:00,2.0,-5.0,-100.00,West,270,2.0,6.0,71,-99.99,,,-99.99,,2013-12-07 19:02:00,
2013-12-07 13:22:00,4.0,-4.0,-100.00,WSW,250,1.0,4.0,69,-99.99,,,-99.99,,2013-12-07 19:22:00,
2013-12-07 13:32:00,4.0,-4.0,-100.00,WSW,250,1.0,4.0,69,-99.99,,,-99.99,,2013-12-07 19:32:00,
2013-12-07 13:42:00,4.0,-4.0,-100.00,WSW,250,1.0,4.0,69,-99.99,,,-99.99,,2013-12-07 19:42:00,
2013-12-07 13:52:00,4.0,-4.0,-100.00,WSW,250,1.0,4.0,69,-99.99,,,-99.99,,2013-12-07 19:52:00,
2013-12-07 14:02:00,4.0,-4.0,-100.00,WSW,250,1.0,4.0,69,-99.99,,,-99.99,,2013-12-07 20:02:00,
2013-12-07 14:22:00,5.0,-4.0,-100.00,WSW,250,2.0,4.0,65,-99.99,,,-99.99,,2013-12-07 20:22:00,
2013-12-07 14:32:00,5.0,-4.0,-100.00,WSW,250,2.0,4.0,65,-99.99,,,-99.99,,2013-12-07 20:32:00,
2013-12-07 14:42:00,5.0,-4.0,-100.00,WSW,250,2.0,4.0,65,-99.99,,,-99.99,,2013-12-07 20:42:00,
2013-12-07 14:53:00,5.0,-4.0,-100.00,WSW,250,2.0,4.0,65,-99.99,,,-99.99,,2013-12-07 20:53:00,
2013-12-07 15:02:00,5.0,-4.0,-100.00,WSW,250,2.0,4.0,65,-99.99,,,-99.99,,2013-12-07 21:02:00,
2013-12-07 15:03:00,2.0,-7.0,-100.00,West,280,2.0,6.0,65,-99.99,,,-99.99,,2013-12-07 21:03:00,
2013-12-07 15:22:00,2.0,-7.0,-100.00,West,280,2.0,6.0,65,-99.99,,,-99.99,,2013-12-07 21:22:00,
2013-12-07 15:33:00,2.0,-7.0,-100.00,West,280,2.0,6.0,65,-99.99,,,-99.99,,2013-12-07 21:33:00,
2013-12-07 15:43:00,2.0,-7.0,-100.00,West,280,2.0,6.0,65,-99.99,,,-99.99,,2013-12-07 21:43:00,
2013-12-07 15:53:00,2.0,-7.0,-100.00,West,280,2.0,6.0,65,-99.99,,,-99.99,,2013-12-07 21:53:00,
2013-12-07 16:23:00,-1.0,-8.0,-100.00,West,260,3.0,7.0,72,-99.99,,,-99.99,,2013-12-07 22:23:00,
2013-12-07 16:33:00,-1.0,-8.0,-100.00,West,260,3.0,7.0,72,-99.99,,,-99.99,,2013-12-07 22:33:00,
2013-12-07 16:43:00,-1.0,-8.0,-100.00,West,260,3.0,7.0,72,-99.99,,,-99.99,,2013-12-07 22:43:00,
2013-12-07 16:53:00,-1.0,-8.0,-100.00,West,260,3.0,7.0,72,-99.99,,,-99.99,,2013-12-07 22:53:00,
2013-12-07 17:02:00,-1.0,-8.0,-100.00,West,260,3.0,7.0,72,-99.99,,,-99.99,,2013-12-07 23:02:00,
2013-12-07 17:22:00,-3.0,-9.0,-100.00,WSW,250,3.0,6.0,76,-99.99,,,-99.99,,2013-12-07 23:22:00,
2013-12-07 17:33:00,-3.0,-9.0,-100.00,WSW,250,3.0,6.0,76,-99.99,,,-99.99,,2013-12-07 23:33:00,
2013-12-07 17:43:00,-3.0,-9.0,-100.00,WSW,250,3.0,6.0,76,-99.99,,,-99.99,,2013-12-07 23:43:00,
2013-12-07 17:52:00,-3.0,-9.0,-100.00,WSW,250,3.0,6.0,76,-99.99,,,-99.99,,2013-12-07 23:52:00,
2013-12-07 18:02:00,-3.0,-9.0,-100.00,WSW,250,3.0,6.0,76,-99.99,,,-99.99,,2013-12-08 00:02:00,
2013-12-07 18:22:00,-5.0,-10.0,-100.00,West,270,1.0,6.0,78,-99.99,,,-99.99,,2013-12-08 00:22:00,
2013-12-07 18:32:00,-5.0,-10.0,-100.00,West,270,1.0,6.0,78,-99.99,,,-99.99,,2013-12-08 00:32:00,
2013-12-07 18:42:00,-5.0,-10.0,-100.00,West,270,1.0,6.0,78,-99.99,,,-99.99,,2013-12-08 00:42:00,
2013-12-07 18:52:00,-5.0,-10.0,-100.00,West,270,1.0,6.0,78,-99.99,,,-99.99,,2013-12-08 00:52:00,
2013-12-07 19:02:00,-5.0,-10.0,-100.00,West,270,1.0,6.0,78,-99.99,,,-99.99,,2013-12-08 01:02:00,
2013-12-07 19:22:00,-6.0,-11.0,-100.00,NW,325,2.0,6.0,79,-99.99,,,-99.99,,2013-12-08 01:22:00,
2013-12-07 19:32:00,-6.0,-11.0,-100.00,NW,325,2.0,6.0,79,-99.99,,,-99.99,,2013-12-08 01:32:00,
2013-12-07 19:42:00,-6.0,-11.0,-100.00,NW,325,2.0,6.0,79,-99.99,,,-99.99,,2013-12-08 01:42:00,
2013-12-07 19:52:00,-6.0,-11.0,-100.00,NW,325,2.0,6.0,79,-99.99,,,-99.99,,2013-12-08 01:52:00,
2013-12-07 20:02:00,-6.0,-11.0,-100.00,NW,325,2.0,6.0,79,-99.99,,,-99.99,,2013-12-08 02:02:00,
2013-12-07 20:22:00,-7.0,-11.0,-100.00,West,260,2.0,4.0,81,-99.99,,,-99.99,,2013-12-08 02:22:00,
2013-12-07 20:32:00,-7.0,-11.0,-100.00,West,260,2.0,4.0,81,-99.99,,,-99.99,,2013-12-08 02:32:00,
2013-12-07 20:43:00,-7.0,-11.0,-100.00,West,260,2.0,4.0,81,-99.99,,,-99.99,,2013-12-08 02:43:00,
2013-12-07 20:52:00,-7.0,-11.0,-100.00,West,260,2.0,4.0,81,-99.99,,,-99.99,,2013-12-08 02:52:00,
2013-12-07 21:22:00,-9.0,-12.0,-100.00,WNW,285,1.0,2.0,83,-99.99,,,-99.99,,2013-12-08 03:22:00,
2013-12-07 21:33:00,-9.0,-12.0,-100.00,WNW,285,1.0,2.0,83,-99.99,,,-99.99,,2013-12-08 03:33:00,
2013-12-07 21:44:00,-9.0,-12.0,-100.00,WNW,285,1.0,2.0,83,-99.99,,,-99.99,,2013-12-08 03:44:00,
2013-12-07 21:54:00,-9.0,-12.0,-100.00,WNW,285,1.0,2.0,83,-99.99,,,-99.99,,2013-12-08 03:54:00,
2013-12-07 22:02:00,-999.0,-99.9,-100.00,WNW,285,1.0,2.0,-999,-99.99,,,-99.99,,2013-12-08 04:02:00,
2013-12-07 22:23:00,-9.0,-13.0,-100.00,WNW,285,1.0,4.0,83,-99.99,,,-99.99,,2013-12-08 04:23:00,
2013-12-07 22:43:00,-9.0,-13.0,-100.00,West,270,1.0,3.0,84,-99.99,,,-99.99,,2013-12-08 04:43:00,
2013-12-07 22:53:00,-9.0,-13.0,-100.00,West,270,1.0,3.0,84,-99.99,,,-99.99,,2013-12-08 04:53:00,
2013-12-07 23:03:00,-9.0,-13.0,-100.00,West,270,1.0,3.0,84,-99.99,,,-99.99,,2013-12-08 05:03:00,
2013-12-07 23:23:00,-10.0,-13.0,-100.00,West,280,1.0,2.0,85,-99.99,,,-99.99,,2013-12-08 05:23:00,
2013-12-07 23:34:00,-10.0,-13.0,-100.00,West,280,1.0,2.0,85,-99.99,,,-99.99,,2013-12-08 05:34:00,
2013-12-07 23:43:00,-10.0,-13.0,-100.00,West,280,1.0,2.0,85,-99.99,,,-99.99,,2013-12-08 05:43:00,
2013-12-07 23:53:00,-10.0,-13.0,-100.00,West,280,1.0,2.0,85,-99.99,,,-99.99,,2013-12-08 05:53:00,